DELTA 1 DEB, 10656

Orbit data source: Space-Track

DELTA 1 DEB, 10656 is space debris in SSO originally from a launch on Thu, 29 Jul 1976 UTC launched from the Air Force Western Test Range (AFWTR). Debris objects in space refer to the collection of defunct objects orbiting the Earth. Examples of debris include non-operational satellites, rocket bodies, and fragments generated from explosions, collisions, or faulty payload assembly.

Loading next visibility...
Identifier
10656, 1976-077S
Orbit
SSO
Country
Flag of USUS
Related business
Manufacturer
Unknown
Mission
Spacecraft
Bus & Motor
Unknown
Mass
Unknown
Launch date (UTC)
1976-07-29 (50 years ago)
Launch vehicle
Unknown
Launch site
Air Force Western Test Range (AFWTR)
Object type
Payload
Rocket body
Debris
Shape & HBR
Unknown shape, 0.6 m
Radar Cross Section
Medium (>0.1 m² and <1 m²)

Expand to show TLE details & history
Last TLE update: 11 hours ago

TLE from 11 hours ago
0 DELTA 1 DEB
1 10656U 76077S   26034.51441686 -.00000017  00000-0  20182-3 0  9990
2 10656 101.8486   9.7137 0077838  12.4865 102.3131 12.37107654235180
Epoch: 2026-02-03T12:20Z
TLE epoch observation values (Epoch: 2026-02-03T12:20:45.616Z)
Latitude
61.98588°
Longitude
-106.0657°
Altitude
1,542.885 km
Speed
7.095 km/s
True Right ascension
14h 11m 16s
True Declination
61° 51' 26"
Sunlit
Object was in daylight at epoch
Visualization orbit readout
Latitude
Unknown
Longitude
Unknown
Altitude
Unknown
Speed
Unknown
Apparent Right ascension
Unknown
Apparent Declination
Unknown
Sunlit
N/A
Visualization observer readout
Local Sidereal Time
01:44:50
Azimuth
Unknown
Elevation
Unknown
Doppler factor
Unknown
Orbital elements
Apogee altitude
1,577.907 km
Perigee altitude
1,455.007 km
Semi-major axis
7,894.594 km
Eccentricity
0.00778
Inclination
101.8486°
RAAN
9.7137°
Arg. of periapsis
12.4865°
True anomaly
103.1827°
Mean anomaly
102.3131°
Eccentric anomaly
102.74809°
Mean motion
3.0942 °/min
Orbital period
116.35 mins
BSTAR
0.00020182
Loading maneuver chart data...
Computing Atmospheric mass density...
Loading historical data...
Loading historical data...
Loading historical data...
Loading historical data...
Loading historical data...
Loading historical data...
Loading historical data...

Documentation

Showing up to 5 results
|